Regional Weather Roundup
Issued by NWS Wakefield, VA

Home | Current Version | Previous Version | Text Only | Print | Product List | Glossary Off
Versions: 1 2 3 4 5 6 7 8 9 10 11 12 13 14 15 16 17 18 19 20 21 22 23 24 25 26 27 28 29 30 31 32 33 34 35 36 37 38 39 40 41 42 43 44 45 46 47 48 49 50

208
ASUS41 KAKQ 180416
RWRAKQ

REGIONAL WEATHER ROUNDUP
NATIONAL WEATHER SERVICE WAKEFIELD VA
1200 AM EDT WED OCT 18 2017

Note: "fair" indicates few or no clouds below 12,000 feet with no
significant weather and/or obstructions to visibility. * = Denotes
station may not report precipitation (e.g., rain,snow,etc.),
thunder or fog.

VAZ042-051-052>054-056-180500-
NORTHERN VIRGINIA

CITY           SKY/WX    TMP DP  RH WIND       PRES   REMARKS
WASH NATIONAL  CLEAR     50  41  71 SW6       30.35S
DULLES         CLEAR     42  39  89 S3        30.34S
FORT BELVOIR   CLEAR     42  40  94 CALM      30.34F
QUANTICO       CLEAR     46  44  93 NW7       30.36S
FREDERICKSBRG* CLEAR     42  41  98 CALM      30.35S
STAFFORD*      CLEAR     36  36 100 CALM      30.39S
WARRENTON      CLEAR     37  33  87 CALM      30.34S
CULPEPER*      CLEAR     39  37  92 CALM      30.36S
MANASSAS*      CLEAR     39  39 100 CALM      30.35S
LEESBURG*      CLEAR     43  43 100 CALM      30.35S
WINCHESTER     CLEAR     41  36  81 CALM      30.32S
FRONT ROYAL*   CLEAR     43  37  81 MISG      30.32S
LURAY*         CLEAR     41  39  93 CALM      30.33S
$$

VAZ048-049-060>072-079>083-180500-
CENTRAL AND SOUTH CENTRAL VIRGINIA

CITY           SKY/WX    TMP DP  RH WIND       PRES   REMARKS
RICHMOND       CLEAR     46  41  82 SE3       30.35S
CHESTERFIELD*  NOT AVBL
PETERSBURG*    CLEAR    N/A N/A N/A CALM      30.36S
HANOVER        CLEAR     41  40  96 CALM      30.36S
TAPPAHANNOCK*  CLEAR    N/A N/A N/A CALM      30.36R
QUINTON*       FAIR      41  41 100 CALM      30.34F
CHARLOTTSVILLE CLEAR     46  42  86 CALM      30.34S
GORDONSVILLE*  CLEAR     40  39  99 CALM      30.34S
ORANGE*        CLEAR     37  36  93 CALM      30.34S
LOUISA*        CLEAR     36  34  93 CALM      30.34S
BUMPASS*       FAIR      40  40 100 CALM      30.34F
FARMVILLE*     CLEAR     38  38 100 CALM      30.34S
CREWE*         FAIR      38  38 100 CALM      30.34F
FORT PICKETT*  FAIR      41  41 100 CALM      30.35S
CHASE CITY*    FAIR      42  42 100 CALM      30.34F
CLARKSVILLE*   FAIR      41  41 100 CALM      30.34F
SOUTH HILL*    CLEAR     39  39  99 CALM      30.40F
LAWRENCEVILLE* FAIR      42  39  90 CALM      30.34F
EMPORIA*       CLEAR     37  36  93 CALM      30.36F
$$

VAZ088>098-180500-
SOUTHEAST VIRGINIA

CITY           SKY/WX    TMP DP  RH WIND       PRES   REMARKS
NORFOLK        CLEAR     49  46  90 CALM      30.34S
VIRGINIA BEACH CLEAR     47  44  90 CALM      30.33S
NORFOLK NAVAL  PTCLDY    46  44  93 VRB3      30.35F
WEST POINT*    CLEAR     39  38  97 CALM      30.37S
SALUDA*        FAIR      42  42  99 CALM      30.34F
NEWPORT NEWS   CLEAR     43  41  93 CALM      30.34F
LANGLEY AFB    CLEAR     45  43  93 CALM      30.34S
FORT EUSTIS    CLEAR     44  41  88 CALM      30.32S
WILLIAMSBURG*  CLEAR     46  46 100 CALM      30.35F
HR EXEC AP*    NOT AVBL
FRANKLIN*      PTCLDY    39  38  95 CALM      30.36S
US460-WAKEFLD  CLEAR     41  41 100 CALM      30.35S
$$

VAZ020-022-025-037-045-180500-
WEST CENTRAL AND SOUTHWEST VIRGINIA

CITY           SKY/WX    TMP DP  RH WIND       PRES   REMARKS
STAUNTON*      CLEAR     39  34  81 CALM      30.35S
WAYNESBORO*    CLEAR     42  38  84 SW3       30.33F
HOT SPRINGS VA CLEAR     46  30  55 W9        30.34S
LYNCHBURG      CLEAR     41  38  89 CALM      30.34F
DANVILLE       CLEAR     40  40 100 CALM      30.34F
SOUTH BOSTON*  FAIR      39  38  96 CALM      30.34F
MARTINSVILLE   CLEAR     38  37  97 CALM      30.37S
ROANOKE        CLEAR     46  41  82 CALM      30.36F
BLACKSBURG     CLEAR     42  39  88 CALM      30.37S
DUBLIN*        CLEAR     44  40  86 CALM      30.36S
MARION*        CLEAR     40  37  91 CALM      30.36S
HILLSVILLE*    CLEAR     46  34  64 CALM      30.33S
RICHLANDS*     FAIR      45  35  66 NE5       30.33F
WISE*          CLEAR     52  36  54 CALM      30.33F
ABINGDON*      CLEAR     47  40  76 E5        30.32F
$$

MDZ021>025-VAZ099-100-180500-
SOUTHERN MARYLAND AND THE DELMARVA PENINSULA

CITY           SKY/WX    TMP DP  RH WIND       PRES   REMARKS
PATUXENT RIVER CLEAR     41  32  70 SW5       30.34S
BAY BRIDGE APT CLEAR     50  43  76 S5        30.33F
LEONARDTOWN    NOT AVBL
DOVER          CLEAR     44  44 100 S6        30.32F
GEORGETOWN     CLEAR     41  39  93 CALM      30.34F
EASTON         CLEAR     44  40  86 CALM      30.37F
CAMBRIDGE      CLEAR     39  37  93 SE5       30.34F
SALISBURY      CLEAR     40  39  97 CALM      30.35S
OCEAN CITY     CLEAR     40  39  97 CALM      30.35S
WALLOPS ISLAND CLEAR     43  43 100 CALM      30.35F
ACCOMACK*      CLEAR     41  41  99 CALM      30.34S
$$

NCZ012>017-030>032-180500-
NORTH CENTRAL AND EASTERN NORTH CAROLINA

CITY           SKY/WX    TMP DP  RH WIND       PRES   REMARKS
ROANOKE RAPIDS FAIR      39  39 100 CALM      30.35S
RALEIGH        CLEAR     44  42  93 CALM      30.34F
ELIZABETH CITY CLEAR     53  47  79 N13       30.33F
AHOSKIE*       CLEAR     41  41 100 CALM      30.35F
EDENTON*       CLEAR     47  44  87 CALM      30.34F
CURRITUCK*     CLEAR     49  45  88 CALM      30.34S
KILL DEVIL HLS CLEAR     57  46  65 CALM      30.30S
MANTEO         CLEAR    N/A N/A N/A NE7       30.31F
CAPE HATTERAS  CLOUDY    61  52  72 VRB6G21   30.27F
TARBORO*       NOT AVBL
GOLDSBORO      CLEAR     49  42  76 NE5       30.31F
WASHINGTON     CLEAR     47  43  86 N3        30.33F
GREENVILLE     CLEAR     43  43 100 CALM      30.34S
NEW BERN       CLEAR     52  44  74 N10       30.33S
WILMINGTON     CLEAR     49  44  83 NE6       30.30S
$$

VAZ048-180500-
ELSEWHERE

CITY           SKY/WX    TMP DP  RH WIND       PRES   REMARKS
HARRISBURG PA  PTCLDY    47  41  80 CALM      30.31R
BALTIMORE      CLEAR     45  41  86 SW3       30.33S
ANNAPOLIS      CLEAR     51  44  77 W3        30.33F
ANDREWS AFB    CLEAR     44  40  87 S3        30.33S
PHILADELPHIA   CLEAR     52  41  66 SW9       30.32S
HENDERSON NC   CLEAR     40  37  87 CALM      30.35S
GREENSBORO     CLEAR     47  41  80 CALM      30.33S
ROCKY MOUNT    CLEAR     44  43  96 CALM      30.34F
$$

VAZ100-180500-
MARINE

STATION/POSITION TIME  TEMP    WIND        PRES    WAVE   SWELL
                       AIR SEA DIR/SP/G            HT/PER HT/PER
                 (UTC) (F)     (DEG/KT/KT) (MB)    (FT/S) (FT/S)
BRANDYWINE LGT   0342   56     240/ 12/ 14 1027.2F
CAPE MAY NJ      0348   57 65  270/ 10/ 13 1026.3F
LEWES DE         0348   47 64  220/  5/  7 1026.9F
15NM E FENWICK I 0350   57 67   CALM  /  2 1027.8F   3/ 7   2/ 7
OCEAN-CITY-INLET 0348   52 67  360/  2/  2 1027.8F
WACHAPREAGUE VA  0348   46 62  280/  1/  2 1027.5S
THOMAS POINT MD  0400   56 68  230/ 11/ 12   N/A
GOOSES REEF MD   0350   59     260/  8/ 10 1027.6F
COVE POINT MD    0348   55     240/  4/  5 1027.9F
SOLOMONS ISLAND  0348   55 70  210/  3/  3 1027.0F
BISHOPS HEAD MD  0348   56 61   90/  3/  5 1027.6S
PINEY POINT MD   0348          250/  3/  4   N/A
POTOMAC MD       0350   58     230/  4/  6 1026.9F
CAMBRIDGE MD     0348   46 66              1027.9F
LEWISETTA VA     0348   51 64  230/  3/  4 1027.4F
RAPPAHANNOCK LGT 0348           90/  5/  6 1028.1S
STINGRAY PT      0350   58      CALM  /  2 1027.7F
YORK RVR RNG VA  0348   58      80/  5/  6 1027.9F
YORKTOWN VA      0348   54 70  270/  3/  5 1027.2F
JAMESTOWN VA     0350           70/  2/  2   N/A
DOMINION TERM VA 0348   56      CALM  /  2 1027.6F
KIPTOPEKE VA     0348      66   20/  5/  6   N/A
CAPE HENRY VA    0348   57     360/  6/ 10   N/A
WILLOUBY STN VA  0342   57     350/  6/  7 1027.3S
S CRANEY ISL VA  0348   51     260/  5/  5 1027.3S
CAPE HENRY BUOY  0330      70                N/A     3/ 7   2/11
1ST LANDING BUOY 0350   57                 1027.4S
CAPE CHARLES BUO 0351      70                N/A     3/10   2/11
64NM E OF VA BCH 0350   60 67   30/ 10/ 12 1026.6F   5/ 7   5/ 7
DUCK PIER NC     0348   60 68   30/ 10/ 15 1026.0F
44100 DUCK FRF   0335      71                N/A     5/ 7   2/11
44056 DUCK FRF   0330      70                N/A     4/ 6   2/11
OREGON INLET NC  0342   60 65   20/ 11/ 16 1025.7F
HATTERAS NC      0348   62 69   20/ 16/ 20 1024.8F
DIAMOND SHLS NC  0350   66 81   20/ 19/ 23 1023.9F   6/10   3/10
CAPE LOOKOUT NC  0400   58     360/ 12/ 16 1025.1R
$$




USA.gov is the U.S. government's official web portal to all federal, state and local government web resources and services.